TimeCST,TemperatureF,Dew PointF,Humidity,Sea Level PressureIn,VisibilityMPH,Wind Direction,Wind SpeedMPH,Gust SpeedMPH,PrecipitationIn,Events,Conditions,WindDirDegrees,DateUTC
12:15 AM,51.8,23.0,33,30.07,10.0,ENE,6.9,-,N/A,,Clear,60,2014-02-28 06:15:00
12:35 AM,51.8,24.8,35,30.06,10.0,East,8.1,-,N/A,,Clear,80,2014-02-28 06:35:00
12:55 AM,51.8,24.8,35,30.06,10.0,East,5.8,-,N/A,,Clear,80,2014-02-28 06:55:00
1:15 AM,53.6,26.6,35,30.06,10.0,East,4.6,-,N/A,,Clear,100,2014-02-28 07:15:00
1:35 AM,51.8,26.6,38,30.06,10.0,East,6.9,-,N/A,,Clear,90,2014-02-28 07:35:00
1:55 AM,53.6,28.4,38,30.05,10.0,ENE,8.1,-,N/A,,Clear,70,2014-02-28 07:55:00
2:15 AM,51.8,30.2,44,30.05,10.0,Variable,4.6,11.5,N/A,,Clear,0,2014-02-28 08:15:00
2:35 AM,51.8,32.0,47,30.04,10.0,ENE,8.1,-,N/A,,Clear,60,2014-02-28 08:35:00
2:55 AM,51.8,32.0,47,30.04,10.0,ENE,8.1,-,N/A,,Clear,70,2014-02-28 08:55:00
3:15 AM,53.6,32.0,44,30.05,10.0,East,8.1,-,N/A,,Clear,80,2014-02-28 09:15:00
3:35 AM,51.8,33.8,50,30.05,10.0,East,8.1,-,N/A,,Clear,80,2014-02-28 09:35:00
3:55 AM,53.6,35.6,51,30.05,10.0,ENE,8.1,-,N/A,,Clear,70,2014-02-28 09:55:00
4:15 AM,51.8,35.6,54,30.05,10.0,ENE,10.4,-,N/A,,Clear,60,2014-02-28 10:15:00
4:35 AM,53.6,35.6,51,30.05,10.0,ENE,9.2,-,N/A,,Clear,60,2014-02-28 10:35:00
4:55 AM,53.6,37.4,54,30.06,10.0,ENE,9.2,-,N/A,,Clear,60,2014-02-28 10:55:00
5:15 AM,53.6,37.4,54,30.07,10.0,ENE,9.2,-,N/A,,Clear,60,2014-02-28 11:15:00
5:35 AM,53.6,39.2,58,30.07,10.0,ENE,9.2,-,N/A,,Clear,70,2014-02-28 11:35:00
5:55 AM,53.6,41.0,62,30.07,10.0,ENE,9.2,-,N/A,,Clear,70,2014-02-28 11:55:00
6:15 AM,53.6,41.0,62,30.07,10.0,East,10.4,-,N/A,,Clear,100,2014-02-28 12:15:00
6:35 AM,53.6,42.8,67,30.08,10.0,East,10.4,-,N/A,,Clear,90,2014-02-28 12:35:00
6:55 AM,55.4,42.8,63,30.08,10.0,East,10.4,-,N/A,,Clear,90,2014-02-28 12:55:00
7:15 AM,57.2,44.6,63,30.09,10.0,ESE,11.5,-,N/A,,Clear,110,2014-02-28 13:15:00
7:35 AM,57.2,44.6,63,30.09,10.0,East,8.1,15.0,N/A,,Clear,90,2014-02-28 13:35:00
7:55 AM,57.2,42.8,59,30.09,10.0,SE,11.5,-,N/A,,Clear,130,2014-02-28 13:55:00
8:15 AM,57.2,42.8,59,30.10,10.0,ESE,10.4,-,N/A,,Clear,120,2014-02-28 14:15:00
8:35 AM,59.0,42.8,55,30.09,10.0,ESE,15.0,-,N/A,,Clear,120,2014-02-28 14:35:00
8:55 AM,59.0,39.2,48,30.09,10.0,SE,15.0,-,N/A,,Clear,140,2014-02-28 14:55:00
9:15 AM,59.0,39.2,48,30.10,10.0,SSE,15.0,-,N/A,,Clear,150,2014-02-28 15:15:00
9:35 AM,59.0,39.2,48,30.10,10.0,SSE,12.7,19.6,N/A,,Clear,160,2014-02-28 15:35:00
9:55 AM,59.0,41.0,51,30.10,10.0,SSE,11.5,-,N/A,,Clear,150,2014-02-28 15:55:00
10:15 AM,60.8,41.0,48,30.11,10.0,SSE,13.8,-,N/A,,Clear,160,2014-02-28 16:15:00
10:35 AM,60.8,42.8,52,30.11,10.0,SSE,13.8,-,N/A,,Clear,160,2014-02-28 16:35:00
10:55 AM,60.8,44.6,55,30.11,10.0,SSE,17.3,-,N/A,,Clear,160,2014-02-28 16:55:00
11:15 AM,62.6,46.4,55,30.12,10.0,South,15.0,-,N/A,,Clear,170,2014-02-28 17:15:00
11:35 AM,62.6,46.4,55,30.11,10.0,South,13.8,-,N/A,,Clear,170,2014-02-28 17:35:00
11:55 AM,62.6,46.4,55,30.11,10.0,SSE,12.7,-,N/A,,Clear,160,2014-02-28 17:55:00
12:15 PM,62.6,48.2,59,30.11,10.0,South,11.5,-,N/A,,Mostly Cloudy,180,2014-02-28 18:15:00
12:35 PM,62.6,48.2,59,30.10,10.0,South,8.1,16.1,N/A,,Overcast,180,2014-02-28 18:35:00
12:55 PM,62.6,48.2,59,30.08,10.0,South,9.2,-,N/A,,Overcast,170,2014-02-28 18:55:00
1:15 PM,62.6,48.2,59,30.07,10.0,South,11.5,-,N/A,,Overcast,180,2014-02-28 19:15:00
1:35 PM,62.6,50.0,63,30.07,10.0,South,12.7,-,N/A,,Mostly Cloudy,180,2014-02-28 19:35:00
1:55 PM,62.6,50.0,63,30.06,10.0,South,10.4,-,N/A,,Scattered Clouds,170,2014-02-28 19:55:00
2:15 PM,62.6,50.0,63,30.04,10.0,SE,12.7,-,N/A,,Mostly Cloudy,140,2014-02-28 20:15:00
2:35 PM,62.6,50.0,63,30.03,10.0,SE,16.1,-,N/A,,Partly Cloudy,140,2014-02-28 20:35:00
2:55 PM,62.6,51.8,68,30.03,10.0,SSE,15.0,-,N/A,,Clear,150,2014-02-28 20:55:00
3:15 PM,62.6,51.8,68,30.02,10.0,SSE,15.0,-,N/A,,Clear,150,2014-02-28 21:15:00
3:35 PM,62.6,51.8,68,30.03,10.0,SSE,15.0,-,N/A,,Clear,150,2014-02-28 21:35:00
3:55 PM,64.4,51.8,64,30.02,10.0,SSE,15.0,-,N/A,,Partly Cloudy,160,2014-02-28 21:55:00
4:15 PM,64.4,51.8,64,30.03,10.0,SSE,13.8,-,N/A,,Mostly Cloudy,160,2014-02-28 22:15:00
4:35 PM,64.4,53.6,68,30.04,10.0,SSE,10.4,-,N/A,,Overcast,160,2014-02-28 22:35:00
4:55 PM,64.4,51.8,64,30.04,10.0,SSE,11.5,-,N/A,,Overcast,150,2014-02-28 22:55:00
5:15 PM,64.4,53.6,68,30.04,10.0,SSE,12.7,-,N/A,,Overcast,160,2014-02-28 23:15:00
5:35 PM,64.4,53.6,68,30.04,10.0,SSE,11.5,-,N/A,,Overcast,160,2014-02-28 23:35:00
5:55 PM,64.4,53.6,68,30.04,10.0,SSE,12.7,-,N/A,,Overcast,160,2014-02-28 23:55:00
6:15 PM,64.4,53.6,68,30.05,10.0,SSE,11.5,-,N/A,,Overcast,160,2014-03-01 00:15:00
6:35 PM,64.4,53.6,68,30.06,10.0,SSE,11.5,-,N/A,,Overcast,160,2014-03-01 00:35:00
6:55 PM,64.4,55.4,73,30.06,10.0,SSE,12.7,-,N/A,,Overcast,160,2014-03-01 00:55:00
7:15 PM,64.4,55.4,73,30.06,10.0,SE,11.5,-,N/A,,Overcast,140,2014-03-01 01:15:00
7:35 PM,64.4,55.4,73,30.07,10.0,SSE,13.8,-,N/A,,Overcast,150,2014-03-01 01:35:00
7:55 PM,64.4,55.4,73,30.07,10.0,SE,13.8,-,N/A,,Overcast,140,2014-03-01 01:55:00
8:15 PM,66.2,57.2,73,30.07,10.0,SE,15.0,-,N/A,,Overcast,140,2014-03-01 02:15:00
8:35 PM,66.2,55.4,68,30.08,10.0,SSE,15.0,-,N/A,,Overcast,150,2014-03-01 02:35:00
8:55 PM,66.2,57.2,73,30.09,10.0,SSE,13.8,-,N/A,,Overcast,150,2014-03-01 02:55:00
9:15 PM,66.2,57.2,73,30.09,10.0,SSE,12.7,-,N/A,,Overcast,150,2014-03-01 03:15:00
9:35 PM,66.2,57.2,73,30.10,10.0,SSE,13.8,-,N/A,,Overcast,160,2014-03-01 03:35:00
9:55 PM,66.2,57.2,73,30.10,10.0,SSE,13.8,-,N/A,,Overcast,150,2014-03-01 03:55:00
10:15 PM,66.2,57.2,73,30.10,10.0,SSE,15.0,-,N/A,,Overcast,160,2014-03-01 04:15:00
10:35 PM,66.2,57.2,73,30.10,10.0,SSE,16.1,-,N/A,,Overcast,150,2014-03-01 04:35:00
10:55 PM,66.2,57.2,73,30.10,10.0,SSE,16.1,-,N/A,,Overcast,150,2014-03-01 04:55:00
11:15 PM,66.2,57.2,73,30.10,10.0,SSE,17.3,-,N/A,,Mostly Cloudy,150,2014-03-01 05:15:00
11:35 PM,66.2,57.2,73,30.10,10.0,SSE,16.1,-,N/A,,Mostly Cloudy,150,2014-03-01 05:35:00
11:55 PM,66.2,57.2,73,30.10,10.0,SE,15.0,-,N/A,,Overcast,140,2014-03-01 05:55:00